This is the latest recevied weather packets stored in our database for station/object MB7UIK. If no packets are shown the sender has not sent any weather packets the latest 1 day(s).
| Time | Temp. | Humidity | Pressure | Rain* | Wind** | Luminosity | Snow |
|---|---|---|---|---|---|---|---|
| 1778045533 | 9.44° C | 100% | 1011.1 hPa | 0 mm | 1.79 m/s, 317° | - | - |
| 1778045505 | 9.44° C | 100% | 1011.1 hPa | 0 mm | 0.89 m/s, 292° | - | - |
| 1778045445 | 9.44° C | 100% | 1011.1 hPa | 0 mm | 0 m/s | - | - |
| 1778045386 | 9.44° C | 100% | 1011.1 hPa | 0 mm | 0.45 m/s, 306° | - | - |
| 1778045326 | 9.44° C | 100% | 1011.1 hPa | 0 mm | 0.45 m/s, 17° | - | - |
| 1778045265 | 9.44° C | 100% | 1011.1 hPa | 0 mm | 1.34 m/s, 360° | - | - |
| 1778045231 | 9.44° C | 100% | 1011.1 hPa | 0 mm | 1.34 m/s, 360° | - | - |
| 1778045205 | 9.44° C | 100% | 1011.1 hPa | 0 mm | 0.89 m/s, 11° | - | - |
| 1778045145 | 9.44° C | 100% | 1011 hPa | 0 mm | 0.45 m/s, 355° | - | - |
| 1778045085 | 9.44° C | 100% | 1011 hPa | 0 mm | 1.34 m/s, 338° | - | - |
| 1778045025 | 9.44° C | 100% | 1011 hPa | 0 mm | 1.34 m/s, 342° | - | - |
| 1778044965 | 9.44° C | 100% | 1011 hPa | 0 mm | 1.34 m/s, 339° | - | - |
| 1778044933 | 9.44° C | 100% | 1011 hPa | 0 mm | 1.34 m/s, 339° | - | - |
| 1778044905 | 9.44° C | 100% | 1011 hPa | 0 mm | 0.89 m/s, 337° | - | - |
| 1778044845 | 9.44° C | 100% | 1011 hPa | 0 mm | 1.34 m/s, 355° | - | - |
| 1778044785 | 9.44° C | 100% | 1011 hPa | 0 mm | 1.34 m/s, 336° | - | - |
| 1778044725 | 9.44° C | 100% | 1011 hPa | 0 mm | 1.34 m/s, 336° | - | - |
| 1778044665 | 9.44° C | 100% | 1011 hPa | 0 mm | 1.34 m/s, 355° | - | - |
| 1778044633 | 9.44° C | 100% | 1011 hPa | 0 mm | 1.34 m/s, 355° | - | - |
| 1778044606 | 9.44° C | 100% | 1011 hPa | 0 mm | 1.34 m/s, 360° | - | - |
| 1778044546 | 9.44° C | 100% | 1011.1 hPa | 0 mm | 1.79 m/s, 351° | - | - |
| 1778044485 | 9.44° C | 100% | 1011.1 hPa | 0 mm | 0.89 m/s, 360° | - | - |
| 1778044425 | 9.44° C | 100% | 1011.1 hPa | 0 mm | 1.34 m/s, 355° | - | - |
| 1778044364 | 9.44° C | 100% | 1011.1 hPa | 0 mm | 0.45 m/s, 15° | - | - |
| 1778044332 | 9.44° C | 100% | 1011.1 hPa | 0 mm | 0.45 m/s, 15° | - | - |
* Rain latest hour (hover to see other rain measurements)
** Current wind speed in m/s (hover to see current wind gust speed)